Regional Weather Roundup
Issued by NWS

Home | Current Version | Previous Version | Graphics & Text | Print | Product List | Glossary On
Versions: 1 2 3 4 5 6 7 8 9 10 11 12 13 14 15 16 17 18 19 20 21 22 23 24 25 26 27 28 29 30 31 32 33 34 35 36 37 38 39 40 41 42 43 44 45 46 47 48 49 50
381
ASUS43 KOAX 251902
RWRNE

WEATHER ROUNDUP FOR NEBRASKA
NATIONAL WEATHER SERVICE OMAHA NE
200 PM CDT MON SEP 25 2017

NOTES: SATELLITE DATA IS BEING USED TO AUGMENT CLOUD COVER ABOVE
       12000 FEET.
       "FAIR" INDICATES FEW OR NO CLOUDS BELOW 12,000 FEET WITH NO
       SIGNIFICANT WEATHER AND/OR OBSTRUCTIONS TO VISIBILITY.


NEZ001>004-019>022-054>056-252000-
NEBRASKA PANHANDLE

CITY           SKY/WX    TMP DP  RH WIND       PRES   REMARKS
ALLIANCE       CLOUDY    49  41  74 N8        30.08F
CHADRON        CLOUDY    51  40  65 SE5       30.11F
GORDON         CLOUDY    49  42  76 N6        30.10S
KIMBALL        CLOUDY    47  42  81 N8        30.10F
SIDNEY         CLOUDY    51  42  71 N8        30.09F
$$

NEZ057>060-069>072-079>082-252000-
SOUTHWEST NEBRASKA

CITY           SKY/WX    TMP DP  RH WIND       PRES   REMARKS
IMPERIAL       CLOUDY    51  45  79 NE8       30.07R
LEXINGTON      CLOUDY    54  49  83 N10G18    30.03R
MCCOOK         CLOUDY    52  50  93 NE14      30.04R
OGALLALA       CLOUDY    54  46  76 N9        30.07R
$$

NEZ005>010-023>029-035>040-094-252000-
NORTH CENTRAL NEBRASKA

CITY           SKY/WX    TMP DP  RH WIND       PRES   REMARKS
VALENTINE      CLOUDY    51  45  79 N14       30.07F
AINSWORTH      CLOUDY    48  47  96 N14G22    30.07F
BROKEN BOW     CLOUDY    52  48  86 N14G26    30.03R
O`NEILL        CLOUDY    50  50 100 N13       30.04F FOG
ORD            LGT RAIN  52  49  89 N15       30.02R FOG
THEDFORD       CLOUDY    50  46  85 N9        30.08R
$$

NEZ041-046>049-061>064-073>077-083>087-252000-
SOUTH CENTRAL NEBRASKA

CITY           SKY/WX    TMP DP  RH WIND       PRES   REMARKS
GRAND ISLAND   CLOUDY    54  53  97 N10       30.01R
AURORA         CLOUDY    54  54 100 N8        29.99S
HASTINGS       CLOUDY    53  51  93 N12       30.02R
HEBRON         RAIN      60  59  97 NE3       29.95F
HOLDREGE       CLOUDY    53  50  90 N9        30.02R
KEARNEY        CLOUDY    53  51  93 N16       30.02R
YORK           LGT RAIN  55  55 100 N5        30.00R
$$

NEZ011>018-030>034-042>045-252000-
NORTHEAST NEBRASKA

CITY           SKY/WX    TMP DP  RH WIND       PRES   REMARKS
NORFOLK        CLOUDY    55  53  93 N10       29.97F
ALBION         CLOUDY    55  52  92 N9G16     30.00F
BLAIR          LGT RAIN  63  62  97 W6        29.95R
COLUMBUS       LGT RAIN  57  55  93 NE14      29.95F
FREMONT        LGT RAIN  60  59  96 NW6       29.96F
TEKAMAH        CLOUDY    62  59  90 N8        29.94F
WAYNE          CLOUDY    56  54  91 N9        29.99S
$$

NEZ050>053-065>068-078-088>093-252000-
SOUTHEAST NEBRASKA

CITY           SKY/WX    TMP DP  RH WIND       PRES   REMARKS
LINCOLN        LGT RAIN  61  59  93 N14       29.93F FOG
OMAHA EPPLEY   LGT RAIN  67  63  87 NW10      29.93S
BEATRICE       LGT RAIN  63  62  97 CALM      29.94R
NEBRASKA CITY  CLOUDY    74  69  84 NW7       29.90F
PLATTSMOUTH    CLOUDY    72  69  90 CALM      29.91F
$$

NEZ044-045-051>053-067-252000-
OMAHA AREA

CITY           SKY/WX    TMP DP  RH WIND       PRES   REMARKS
OMAHA EPPLEY   LGT RAIN  67  63  87 NW10      29.93S
BLAIR          LGT RAIN  63  62  97 W6        29.95R
FREMONT        LGT RAIN  60  59  96 NW6       29.96F
MILLARD        CLOUDY    66  65  94 NW7       29.94S
OFFUTT AFB     CLOUDY    71  67  87 W6        29.91S
PLATTSMOUTH    CLOUDY    72  69  90 CALM      29.91F
WAHOO          CLOUDY    60  59  97 NW7       29.97R
$$




USA.gov is the U.S. government's official web portal to all federal, state and local government web resources and services.